Location: Benque
(43.2594°N, 0.9178°E)
Time: 03:56:16
(UTC+00:00)

Cosmos 1953 Rocket - Pass Details

Date: 24 January 2020
Orbit: 604 x 635 km, 82.5° (Epoch: 16 February)

Event Time Altitude Azimuth Distance (km) Brightness Sun altitude
Rises 18:06:30 0° 183° (S) 2,917 7.2 -12.7°
Reaches altitude 10° 18:08:44 10° 182° (S) 2,015 6.4 -13.1°
Maximum altitude 18:13:12 77° 97° (E) 657 3.5 -13.9°
Drops below altitude 10° 18:17:42 10° 11° (N) 2,029 6.0 -14.7°
Sets 18:19:57 0° 10° (N) 2,940 6.8 -15.1°
